CW0565 Weather Reports


Display with metric or nautical units.
time (UTC)temp
F
wind
direction
speed
MPH
gust
MPH
rain 1hr
in
rain 24hr
in
rain mn
in
humidity
%
barometer
mb
20260507110024 51 168 9.0 13.0 0.00 0.00 0.00 30 1017.0
20260507104510 51 189 5.0 16.0 0.00 0.00 0.00 31 1016.8
20260507103009 52 159 5.0 12.0 0.00 0.00 0.00 29 1016.8
20260507101510 51 163 6.0 14.0 0.00 0.00 0.00 29 1016.7
20260507100018 51 198 4.0 12.0 0.00 0.00 0.00 29 1016.6
20260507094509 51 191 3.0 12.0 0.00 0.00 0.00 28 1016.5
20260507093013 53 172 3.0 12.0 0.00 0.00 0.00 26 1016.5
20260507091513 52 212 3.0 9.0 0.00 0.00 0.00 26 1016.5
20260507090009 52 209 2.0 8.0 0.00 0.00 0.00 26 1016.6
20260507084517 51 191 6.0 10.0 0.00 0.00 0.00 27 1016.6
20260507083009 52 154 1.0 7.0 0.00 0.00 0.00 27 1016.6
20260507081510 49 144 3.0 10.0 0.00 0.00 0.00 29 1016.5
20260507080009 51 190 1.0 6.0 0.00 0.00 0.00 28 1016.4
20260507074510 52 340 2.0 4.0 0.00 0.00 0.00 28 1016.3
20260507073010 52 344 0.0 3.0 0.00 0.00 0.00 31 1016.3
20260507071511 48 344 2.0 6.0 0.00 0.00 0.00 34 1016.3
20260507070012 47 349 1.0 5.0 0.00 0.00 0.00 38 1016.3
20260507064509 45 350 2.0 5.0 0.00 0.00 0.00 41 1016.3
20260507063024 44 355 2.0 5.0 0.00 0.00 0.00 43 1016.2
20260507061510 42 24 4.0 8.0 0.00 0.00 0.00 45 1016.3
20260507060017 42 14 3.0 8.0 0.00 0.00 0.00 46 1016.3
20260507054511 40 355 1.0 9.0 0.00 0.00 0.00 51 1016.2
20260507053010 39 355 3.0 8.0 0.00 0.00 0.00 54 1016.1
20260507051510 37 360 3.0 9.0 0.00 0.00 0.00 58 1015.9
20260507050010 35 22 2.0 9.0 0.00 0.00 0.00 60 1015.8
20260507044510 33 17 6.0 10.0 0.00 0.00 0.00 65 1015.7
20260507043009 32 19 2.0 6.0 0.00 0.00 0.00 68 1015.6
20260507041509 32 23 5.0 9.0 0.00 0.00 0.00 69 1015.5
20260507040009 31 360 4.0 8.0 0.00 0.00 0.00 71 1015.4
20260507034525 31 355 3.0 5.0 0.00 0.00 0.00 71 1015.2
20260507033010 31 355 2.0 5.0 0.00 0.00 0.00 70 1015.1
20260507031512 32 355 3.0 5.0 0.00 0.00 0.00 69 1015.0
20260507030011 32 355 3.0 6.0 0.00 0.00 0.00 70 1015.0
20260507024510 31 355 2.0 5.0 0.00 0.00 0.00 71 1014.9
20260507023010 32 355 2.0 5.0 0.00 0.00 0.00 69 1014.7
20260507021509 32 355 2.0 5.0 0.00 0.00 0.00 67 1014.6
20260507020024 32 355 3.0 6.0 0.00 0.00 0.00 67 1014.5
20260507014509 32 355 4.0 6.0 0.00 0.00 0.00 67 1014.4
20260507013017 33 355 4.0 6.0 0.00 0.00 0.00 67 1014.2
20260507011510 33 351 4.0 6.0 0.00 0.00 0.00 67 1014.2
20260507010009 34 350 3.0 8.0 0.00 0.00 0.00 64 1014.1
20260507004510 34 355 3.0 8.0 0.00 0.00 0.00 65 1014.0
20260507003010 34 355 3.0 6.0 0.00 0.00 0.00 64 1014.0
20260507001509 35 355 5.0 8.0 0.00 0.00 0.00 64 1013.9
20260507000009 35 355 3.0 6.0 0.00 0.00 0.00 63 1013.8
20260506234518 36 355 2.0 5.0 0.00 0.00 0.00 61 1013.7
20260506233011 36 355 4.0 6.0 0.00 0.00 0.00 61 1013.7
20260506231509 37 355 2.0 6.0 0.00 0.00 0.00 58 1013.7
20260506230010 37 360 2.0 4.0 0.00 0.00 0.00 58 1013.6
20260506224510 39 5 1.0 6.0 0.00 0.00 0.00 55 1013.5
20260506223010 39 5 2.0 8.0 0.00 0.00 0.00 51 1013.5
20260506221509 39 5 2.0 6.0 0.00 0.00 0.00 53 1013.4
20260506220020 41 9 2.0 8.0 0.00 0.00 0.00 47 1013.3
20260506214510 42 11 5.0 8.0 0.00 0.00 0.00 43 1013.1
20260506213009 43 21 6.0 10.0 0.00 0.00 0.00 42 1013.1
20260506211514 43 14 6.0 11.0 0.00 0.00 0.00 41 1012.9
20260506210012 43 16 5.0 9.0 0.00 0.00 0.00 40 1012.8
20260506204509 44 351 5.0 9.0 0.00 0.00 0.00 40 1012.7
20260506201510 45 345 5.0 8.0 0.00 0.00 0.00 38 1012.5
20260506200020 46 344 2.0 9.0 0.00 0.00 0.00 36 1012.3
20260506194509 46 336 3.0 10.0 0.00 0.00 0.00 35 1012.3
20260506193009 47 338 5.0 10.0 0.00 0.00 0.00 33 1012.3
20260506191510 48 329 3.0 8.0 0.00 0.00 0.00 33 1012.1
20260506190002 48 328 5.0 8.0 0.00 0.00 0.00 36 1012.0
20260506184505 49 101 0.0 2.0 0.00 0.00 0.00 48 1011.8
20260506183009 48 101 0.0 2.0 0.00 0.00 0.00 53 1011.8
20260506181516 48 101 2.0 6.0 0.00 0.00 0.00 55 1011.5
20260506180016 49 111 1.0 6.0 0.00 0.00 0.00 53 1011.3
20260506174510 48 145 4.0 11.0 0.00 0.00 0.00 55 1011.3
20260506173009 49 117 2.0 9.0 0.00 0.00 0.00 53 1011.3
20260506171509 50 129 5.0 12.0 0.00 0.00 0.00 45 1011.3
20260506170009 50 108 6.0 14.0 0.00 0.00 0.00 46 1011.3
20260506164511 51 138 6.0 11.0 0.00 0.00 0.00 40 1011.3
20260506163010 51 167 7.0 12.0 0.00 0.00 0.00 39 1011.4
20260506161511 51 173 8.0 11.0 0.00 0.00 0.00 36 1011.3
20260506154509 50 170 4.0 15.0 0.00 0.00 0.00 34 1011.4
20260506153009 51 187 8.0 13.0 0.00 0.00 0.00 33 1011.5
20260506150010 50 166 9.0 20.0 0.00 0.00 0.00 33 1011.6
20260506144510 49 177 8.0 15.0 0.00 0.00 0.00 35 1011.6
20260506143010 50 161 9.0 15.0 0.00 0.00 0.00 32 1011.7
20260506141509 50 170 10.0 14.0 0.00 0.00 0.00 31 1011.7
20260506140010 50 208 8.0 16.0 0.00 0.00 0.00 31 1011.8
20260506134509 50 197 10.0 15.0 0.00 0.00 0.00 32 1011.9
20260506133013 50 180 5.0 15.0 0.00 0.00 0.00 32 1011.9
20260506131516 49 180 8.0 17.0 0.00 0.00 0.00 34 1011.9
20260506130015 49 216 7.0 15.0 0.00 0.00 0.00 35 1012.0
20260506124509 49 205 9.0 20.0 0.00 0.00 0.00 37 1012.0
20260506123009 49 206 9.0 16.0 0.00 0.00 0.00 37 1012.1
20260506121510 48 148 11.0 17.0 0.00 0.00 0.00 35 1012.1
20260506120010 48 201 10.0 16.0 0.00 0.00 0.00 34 1012.2
20260506114511 49 167 7.0 15.0 0.00 0.00 0.00 33 1012.3